Memphis, TN

7:42 PM CST on February 23, 2017 (GMT -0600)
Memphis International

Weather History for KMEM - December, 2013

Change the Weather History Date:

Thursday, December 19, 2013

  Actual Average Record
Temperature  
Mean Temperature 54 °F 43 °F  
Max Temperature 62 °F 51 °F 74 °F (1889)
Min Temperature 46 °F 34 °F 8 °F (1884)
Degree Days  
Heating Degree Days 11 22  
Month to date heating degree days 422 387  
Since 1 July heating degree days 1007 886  
Cooling Degree Days 0 0  
Month to date cooling degree days 3 0  
Year to date cooling degree days 2245 2256  
Growing Degree Days 4 (Base 50)    
Moisture  
Dew Point 45 °F    
Average Humidity 63    
Maximum Humidity 72    
Minimum Humidity 54    
Precipitation  
Precipitation 0.00 in 0.18 in 2.89 in (2002)
Month to date precipitation 2.64 3.69  
Year to date precipitation 57.25 51.63  
Snow  
Snow 0.00 in 0.00 in 1.80 in (1929)
Month to date snowfall T 0.0  
Since 1 July snowfall T T  
Snow Depth 0.00 in    
Sea Level Pressure  
Sea Level Pressure 30.06 in    
Wind  
Wind Speed 12 mph (South)    
Max Wind Speed 21 mph    
Max Gust Speed 26 mph    
Visibility 10 miles    
Events      
T = Trace of Precipitation, MM = Missing Value Source: NWS Daily Summary

Daily Weather History Graph

Daily Weather History Graph

Search for Another Location

Airport or City:

Trip Planner

Search our weather history database for the weather conditions in past years. The results will help you decide how hot, cold, wet, or windy it might be!

Date:

Astronomy

Dec. 19, 2013 Rise Set
Actual Time 7:03 AM CST 4:51 PM CST
Civil Twilight 6:35 AM CST 5:19 PM CST
Nautical Twilight 6:03 AM CST 5:51 PM CST
Astronomical Twilight 5:32 AM CST 6:22 PM CST
Moon 7:12 PM CST (12/19) 8:26 AM CST (12/19)
Length of Visible Light 10h 44m
Length of Day
9h 48m
Waning Gibbous, 95% of the Moon is Illuminated
Dec 19
Waning Gibbous
Dec 25
Last Quarter
Jan 1
New
Jan 7
First Quarter
Jan 15
Full

Hourly Weather History & Observations

Time (CST) Temp. Dew Point Humidity Pressure Visibility Wind Dir Wind Speed Gust Speed Precip Events Conditions
12:54 AM 52.0 °F 36.0 °F 54% 30.11 in 10.0 mi SSW 16.1 mph 25.3 mph N/A   Mostly Cloudy
1:54 AM 48.9 °F 36.0 °F 61% 30.13 in 10.0 mi South 9.2 mph - N/A   Mostly Cloudy
2:54 AM 48.0 °F 37.0 °F 66% 30.14 in 10.0 mi South 9.2 mph - N/A   Overcast
3:54 AM 46.9 °F 37.0 °F 68% 30.14 in 10.0 mi South 6.9 mph - N/A   Overcast
4:54 AM 50.0 °F 39.0 °F 66% 30.13 in 10.0 mi South 11.5 mph - N/A   Scattered Clouds
5:54 AM 46.9 °F 37.9 °F 71% 30.14 in 10.0 mi South 9.2 mph - N/A   Scattered Clouds
6:54 AM 48.0 °F 39.0 °F 71% 30.14 in 10.0 mi South 10.4 mph - N/A   Mostly Cloudy
7:54 AM 48.0 °F 39.9 °F 74% 30.14 in 10.0 mi South 10.4 mph - N/A   Overcast
8:54 AM 52.0 °F 43.0 °F 71% 30.15 in 10.0 mi SSW 12.7 mph - N/A   Overcast
9:54 AM 57.0 °F 46.0 °F 67% 30.15 in 10.0 mi SSW 11.5 mph - N/A   Overcast
10:54 AM 55.9 °F 44.1 °F 64% 30.14 in 10.0 mi South 9.2 mph - N/A   Overcast
11:54 AM 55.9 °F 45.0 °F 67% 30.10 in 10.0 mi SSE 13.8 mph - N/A   Overcast
12:54 PM 57.9 °F 45.0 °F 62% 30.07 in 10.0 mi South 12.7 mph - N/A   Overcast
1:54 PM 59.0 °F 46.9 °F 64% 30.04 in 10.0 mi South 13.8 mph - N/A   Overcast
2:54 PM 60.1 °F 46.9 °F 62% 30.02 in 10.0 mi South 15.0 mph - N/A   Overcast
3:54 PM 59.0 °F 46.9 °F 64% 29.99 in 10.0 mi South 12.7 mph - N/A   Overcast
4:54 PM 57.9 °F 48.0 °F 70% 29.98 in 10.0 mi South 12.7 mph 19.6 mph N/A   Overcast
5:54 PM 59.0 °F 48.9 °F 69% 29.97 in 10.0 mi South 12.7 mph 20.7 mph N/A   Mostly Cloudy
6:54 PM 60.1 °F 50.0 °F 69% 29.96 in 10.0 mi South 15.0 mph - N/A   Overcast
7:54 PM 60.1 °F 51.1 °F 72% 29.96 in 10.0 mi South 11.5 mph - N/A   Overcast
8:54 PM 61.0 °F 51.1 °F 70% 29.96 in 10.0 mi South 12.7 mph 20.7 mph N/A   Overcast
9:54 PM 61.0 °F 51.1 °F 70% 29.95 in 10.0 mi SSE 12.7 mph - N/A   Mostly Cloudy
10:54 PM 62.1 °F 52.0 °F 70% 29.94 in 10.0 mi South 17.3 mph - N/A   Mostly Cloudy
11:54 PM 62.1 °F 52.0 °F 70% 29.95 in 10.0 mi South 17.3 mph 24.2 mph N/A   Mostly Cloudy